Home   Weather   Gävle   Past weeks

Flag for Sweden Past Weather in Gävle, Sweden — Yesterday and Last 2 Weeks

49 °F


Feels Like: 47 °F
Forecast: 41 / 47 °F
Wind: 5 mph from Southwest

Location: Films Kyrkby

Current Time: Oct 28, 2016 at 2:39:53 AM

Latest Report: Oct 28, 2016 at 2:00 AM

Visibility: 19 mi

Pressure: 29.76 "Hg

Humidity: 87%

Dew Point: 45 °F

Location of GävleLocation

Past Weather in Gävle — Graph


Gävle Temperature Yesterday

Maximum temperature yesterday: 49 °F (at 4:00 PM)
Minimum temperature yesterday: 41 °F (at 12:00 AM)
Average temperature yesterday: 46 °F

High & Low Weather Summary for the Past Weeks

High49 °F (Oct 27, 4:00 PM)100% (Oct 26, 9:00 AM)30.60 "Hg (Oct 26, 9:00 AM)
Low33 °F (Oct 25, 11:00 PM)68% (Oct 20, 7:00 PM)29.82 "Hg (Oct 27, 11:00 PM)
Average42 °F86%30.37 "Hg
* Reported Oct 12 11:00 PM — Oct 27 11:00 PM, Gävle, Weather by CustomWeather, © 2016

Note: Actual official high and low records may vary slightly from our data, if they occured in-between our weather recording intervals... More about our weather records


Gävle Weather History for the Previous 24 Hours

Scroll right to see more
Time TempWeatherWind HumidityBarometerVisibility
11:00 PM
Thu, Oct 27
49 °FOvercast.5 mph82%29.82 "Hg15 mi
10:00 PM49 °FPassing clouds.5 mph82%29.84 "Hg14 mi
9:00 PM48 °FOvercast.5 mph84%29.85 "Hg17 mi
8:00 PM48 °FPassing clouds.5 mph86%29.88 "Hg22 mi
7:00 PM48 °FOvercast.3 mph87%29.91 "Hg22 mi
6:00 PM48 °FOvercast.3 mph89%29.92 "Hg22 mi
5:00 PM49 °FOvercast.2 mph89%29.94 "Hg22 mi
4:00 PM49 °FOvercast.3 mph86%29.94 "Hg28 mi
3:00 PM49 °FOvercast.3 mph89%29.96 "Hg25 mi
2:00 PM49 °FOvercast.2 mph90%29.96 "Hg28 mi
1:00 PM49 °FOvercast.3 mph91%29.97 "Hg17 mi
12:00 PM48 °FLow clouds.3 mph95%29.98 "Hg7 mi
11:00 AM46 °FFog.2 mph99%29.99 "Hg3 mi
10:00 AM45 °FFog.2 mph99%29.98 "Hg2 mi
9:00 AM44 °FFog.3 mph100%29.98 "Hg2 mi
8:00 AM44 °FFog.2 mph99%29.97 "Hg2 mi
7:00 AM43 °FLow clouds.2 mph98%29.97 "Hg4 mi
6:00 AM43 °FDrizzle. Low clouds.3 mph98%29.97 "Hg3 mi
5:00 AM42 °FLow clouds.3 mph97%29.98 "Hg6 mi
4:00 AM42 °FLight rain. Low clouds.3 mph98%29.99 "Hg5 mi
3:00 AM41 °FDrizzle. Low clouds.3 mph97%30.01 "Hg5 mi
2:00 AM41 °FLight rain. Low clouds.3 mph97%30.03 "Hg6 mi
Weather by CustomWeather, © 2016

See weather overviewHow to use our weather pages